STARLINK-1454, 45671

Orbit data source: Space-Track

STARLINK-1454, 45671 is a payload satellite owned by SpaceX/Seattle (US) in LEO that was launched on Thu, 04 Jun 2020 UTC via an FALCON 9 launch vehicle from the Air Force Eastern Test Range (AFETR). Payload-class satellites include a variety of spacecraft equipped with specific instruments for various scientific and technological missions. These include communications satellites like Starlink; space stations such as the ISS; scientific satellites like the Hubble; Earth observation satellites from companies like Planet Labs, Umbra, and HawkEye 360; GPS; miniature CubeSats for education and research; and military/defense satellites.

Loading next visibility...
Identifier
45671, 2020-035Q
Orbit
LEO
Country
Flag of USUS
Related business
Manufacturer
SpaceX/Seattle
Mission
Operational Commercial Communications
Bus & Motor
STARLINK, Unknown motor
Mass
260 kg wet, ~248 kg dry
Launch date (UTC)
2020-06-04 (5 years ago)
Launch vehicle
FALCON 9
Launch site
Air Force Eastern Test Range (AFETR)
Object type
Payload
Rocket body
Debris
Shape & HBR
Box + 1 Pan, 10.1 m
Radar Cross Section
13.562 m², Large (>1 m²)

Expand to show TLE details & history
Last TLE update: 9 hours ago

TLE from 9 hours ago
0 STARLINK-1454
1 45671U 20035Q   25308.58942053  .00000225  00000-0  34020-4 0  9999
2 45671  53.0544 268.2177 0001536  86.9114 273.2051 15.06408005299866
Epoch: 2025-11-04T14:08Z
TLE epoch observation values (Epoch: 2025-11-04T14:08:45.933Z)
Latitude
-0.00002°
Longitude
11.95203°
Altitude
548.007 km
Speed
7.589 km/s
True Right ascension
17h 52m 52s
True Declination
0° 00' 00"
Sunlit
Object was in daylight at epoch
Visualization orbit readout
Latitude
Unknown
Longitude
Unknown
Altitude
Unknown
Speed
Unknown
Apparent Right ascension
Unknown
Apparent Declination
Unknown
Sunlit
N/A
Visualization observer readout
Local Sidereal Time
18:55:49
Azimuth
Unknown
Elevation
Unknown
Doppler factor
Unknown
Orbital elements
Apogee altitude
548.522 km
Perigee altitude
546.394 km
Semi-major axis
6,925.595 km
Eccentricity
0.00015
Inclination
53.0544°
RAAN
268.2177°
Arg. of periapsis
86.9114°
True anomaly
273.18753°
Mean anomaly
273.2051°
Eccentric anomaly
273.19631°
Mean motion
3.7658 °/min
Orbital period
95.6 mins
BSTAR
0.00003402
Loading maneuver chart data...
Computing Atmospheric mass density...
Loading historical data...
Loading historical data...
Loading historical data...
Loading historical data...
Loading historical data...
Loading historical data...
Loading historical data...

Documentation

Showing up to 5 results
|